Tracking 19638 objects as of 22-Apr-2019
HD Live streaming from Space Station
objects crossing your sky now

THORAD AGENA D DEB

Track THORAD AGENA D DEB now!
10-day predictions


NORAD ID: 5151
Int'l Code: 1970-025JU
Perigee: 1,030.2 km
Apogee: 1,033.3 km
Inclination: 100.0 °
Period: 105.6 minutes
Semi major axis: 7402 km
RCS: 0.0187 m2 (small)
Launch date: April 8, 1970
Source: United States (US)
Launch site: AIR FORCE WESTERN TEST RANGE (AFWTR)

Note: This is SATELLITE DEBRIS
aabbcc
Your satellite tracking list
Your tracking list is empty




NASA's NSSDC Master Catalog

Two Line Element Set (TLE):
1  5151U 70025JU  19111.75493657  .00000008  00000-0  70114-4 0  9990
2  5151  99.9878 212.8296 0002108 209.2014 304.7267 13.63049108927735
Source of the keplerian elements: AFSPC